Date,TemperatureHighF,TemperatureAvgF,TemperatureLowF,DewpointHighF,DewpointAvgF,DewpointLowF,HumidityHigh,HumidityAvg,HumidityLow,PressureMaxIn,PressureMinIn,WindSpeedMaxMPH,WindSpeedAvgMPH,GustSpeedMaxMPH,PrecipitationSumIn
2013-1-1,8,3,-4,-100,-100,-100,0,0,100,0.00,40.00,0,-999,0,0.01
2013-1-2,9,3,-7,-100,-100,-100,0,0,100,0.00,40.00,0,-999,0,0.01
2013-1-3,23,9,-5,-100,-100,-100,0,0,100,0.00,40.00,0,-999,0,0.00
2013-1-4,41,23,14,-100,-100,-100,0,0,100,0.00,40.00,0,-999,0,0.01
2013-1-5,26,16,9,-100,-100,-100,0,0,100,0.00,40.00,0,-999,0,0.00
2013-1-6,33,22,16,-100,-100,-100,0,0,100,0.00,40.00,0,-999,0,0.00
2013-1-7,30,19,13,-100,-100,-100,0,0,100,0.00,40.00,0,-999,0,0.00
2013-1-8,22,18,16,-100,-100,-100,0,0,100,0.00,40.00,0,-999,0,0.01
2013-1-9,36,25,15,-100,-100,-100,0,0,100,0.00,40.00,0,-999,0,0.00
2013-1-10,34,27,22,-100,-100,-100,0,0,100,0.00,40.00,0,-999,0,0.00
2013-1-11,23,9,-2,-100,-100,-100,0,0,100,0.00,40.00,0,-999,0,0.03
2013-1-12,2,-6,-14,-100,-100,-100,0,0,100,0.00,40.00,0,-999,0,0.01
2013-1-13,1,-12,-18,-100,-100,-100,0,0,100,0.00,40.00,0,-999,0,0.00
2013-1-14,3,-14,-23,-100,-100,-100,0,0,100,0.00,40.00,0,-999,0,0.00
2013-1-15,17,4,-17,-100,-100,-100,0,0,100,0.00,40.00,0,-999,0,0.02
2013-1-16,27,17,11,-100,-100,-100,0,0,100,0.00,40.00,0,-999,0,0.01
2013-1-17,32,20,13,-100,-100,-100,0,0,100,0.00,40.00,0,-999,0,0.00
2013-1-18,30,20,14,-100,-100,-100,0,0,100,0.00,40.00,0,-999,0,0.00
2013-1-19,30,19,13,-100,-100,-100,0,0,100,0.00,40.00,0,-999,0,0.00
2013-1-20,28,20,13,-100,-100,-100,0,0,100,0.00,40.00,0,-999,0,0.00
2013-1-21,27,20,12,-100,-100,-100,0,0,100,0.00,40.00,0,-999,0,0.00
2013-1-22,35,26,18,-100,-100,-100,0,0,100,0.00,40.00,0,-999,0,0.00
2013-1-23,40,30,22,-100,-100,-100,0,0,100,0.00,40.00,0,-999,0,0.00
2013-1-24,36,27,23,-100,-100,-100,0,0,100,0.00,40.00,0,-999,0,0.02
2013-1-25,28,26,25,-100,-100,-100,0,0,100,0.00,40.00,0,-999,0,0.01
2013-1-26,32,28,26,-100,-100,-100,0,0,100,0.00,40.00,0,-999,0,0.00
2013-1-27,30,26,22,-100,-100,-100,0,0,100,0.00,40.00,0,-999,0,0.01
2013-1-28,24,16,3,-100,-100,-100,0,0,100,0.00,40.00,0,-999,0,0.01
2013-1-29,9,2,-2,-100,-100,-100,0,0,100,0.00,40.00,0,-999,0,0.01
2013-1-30,17,7,-2,-100,-100,-100,0,0,100,0.00,40.00,0,-999,0,0.04
2013-1-31,19,17,14,-100,-100,-100,0,0,100,0.00,40.00,0,-999,0,0.07
2013-2-1,20,18,17,-100,-100,-100,0,0,100,0.00,40.00,0,-999,0,0.07
2013-2-2,32,18,12,-100,-100,-100,0,0,100,0.00,40.00,0,-999,0,0.01
2013-2-3,30,18,11,-100,-100,-100,0,0,100,0.00,40.00,0,-999,0,0.00
2013-2-4,25,18,11,-100,-100,-100,0,0,100,0.00,40.00,0,-999,0,0.00
2013-2-5,31,24,15,-100,-100,-100,0,0,100,0.00,40.00,0,-999,0,0.00
2013-2-6,28,22,15,-100,-100,-100,0,0,100,0.00,40.00,0,-999,0,0.01
2013-2-7,29,15,5,-100,-100,-100,0,0,100,0.00,40.00,0,-999,0,0.00
2013-2-8,32,23,14,-100,-100,-100,0,0,100,0.00,40.00,0,-999,0,0.00
2013-2-9,21,17,10,-100,-100,-100,0,0,100,0.00,40.00,0,-999,0,0.02
2013-2-10,12,7,-2,-100,-100,-100,0,0,100,0.00,40.00,0,-999,0,0.02
2013-2-11,14,1,-6,-100,-100,-100,0,0,100,0.00,40.00,0,-999,0,0.00
2013-2-12,20,6,-7,-100,-100,-100,0,0,100,0.00,40.00,0,-999,0,0.01
2013-2-13,17,14,9,-100,-100,-100,0,0,100,0.00,40.00,0,-999,0,0.02
2013-2-14,18,14,10,-100,-100,-100,0,0,100,0.00,40.00,0,-999,0,0.04
2013-2-15,15,12,8,-100,-100,-100,0,0,100,0.00,40.00,0,-999,0,0.01
2013-2-16,28,19,13,-100,-100,-100,0,0,100,0.00,40.00,0,-999,0,0.01
2013-2-17,31,18,10,-100,-100,-100,0,0,100,0.00,40.00,0,-999,0,0.01
2013-2-18,12,8,4,-100,-100,-100,0,0,100,0.00,40.00,0,-999,0,0.01
2013-2-19,27,15,5,-100,-100,-100,0,0,100,0.00,40.00,0,-999,0,0.00
2013-2-20,30,20,14,-100,-100,-100,0,0,100,0.00,40.00,0,-999,0,0.01
2013-2-21,20,15,7,-100,-100,-100,0,0,100,0.00,40.00,0,-999,0,0.00
2013-2-22,14,8,3,-100,-100,-100,0,0,100,0.00,40.00,0,-999,0,0.00
2013-2-23,23,12,6,-100,-100,-100,0,0,100,0.00,40.00,0,-999,0,0.01
2013-2-24,13,10,8,-100,-100,-100,0,0,100,0.00,40.00,0,-999,0,0.01
2013-2-25,24,14,1,-100,-100,-100,0,0,100,0.00,40.00,0,-999,0,0.00
2013-2-26,13,10,7,-100,-100,-100,0,0,100,0.00,40.00,0,-999,0,0.01
2013-2-27,15,7,2,-100,-100,-100,0,0,100,0.00,40.00,0,-999,0,0.01
2013-2-28,17,10,2,-100,-100,-100,0,0,100,0.00,40.00,0,-999,0,0.01
2013-3-1,25,20,13,-100,-100,-100,0,0,100,0.00,40.00,0,-999,0,0.01
2013-3-2,34,26,21,-100,-100,-100,0,0,100,0.00,40.00,0,-999,0,0.01
2013-3-3,28,26,23,-100,-100,-100,0,0,100,0.00,40.00,0,-999,0,0.02
2013-3-4,22,12,2,-100,-100,-100,0,0,100,0.00,40.00,0,-999,0,0.01
2013-3-5,34,18,1,-100,-100,-100,0,0,100,0.00,40.00,0,-999,0,0.00
2013-3-6,40,28,17,-100,-100,-100,0,0,100,0.00,40.00,0,-999,0,0.00
2013-3-7,42,32,26,-100,-100,-100,0,0,100,0.00,40.00,0,-999,0,0.00
2013-3-8,42,31,25,-100,-100,-100,0,0,100,0.00,40.00,0,-999,0,0.00
2013-3-9,24,18,10,-100,-100,-100,0,0,100,0.00,40.00,0,-999,0,0.01
2013-3-10,26,17,10,-100,-100,-100,0,0,100,0.00,40.00,0,-999,0,0.01
2013-3-11,24,20,16,-100,-100,-100,0,0,100,0.00,40.00,0,-999,0,0.04
2013-3-12,29,22,16,-100,-100,-100,0,0,100,0.00,40.00,0,-999,0,0.02
2013-3-13,35,30,25,-100,-100,-100,0,0,100,0.00,40.00,0,-999,0,0.01
2013-3-14,44,34,25,-100,-100,-100,0,0,100,0.00,40.00,0,-999,0,0.00
2013-3-15,43,36,31,-100,-100,-100,0,0,100,0.00,40.00,0,-999,0,0.00
2013-3-16,36,28,21,-100,-100,-100,0,0,100,0.00,40.00,0,-999,0,0.00
2013-3-17,25,19,8,-100,-100,-100,0,0,100,0.00,40.00,0,-999,0,0.00
2013-3-18,19,12,5,-100,-100,-100,0,0,100,0.00,40.00,0,-999,0,0.00
2013-3-19,26,18,4,-100,-100,-100,0,0,100,0.00,40.00,0,-999,0,0.01
2013-3-20,35,22,11,-100,-100,-100,0,0,100,0.00,40.00,0,-999,0,0.02
2013-3-21,26,21,10,-100,-100,-100,0,0,100,0.00,40.00,0,-999,0,0.04
2013-3-22,17,11,5,-100,-100,-100,0,0,100,0.00,40.00,0,-999,0,0.01
2013-3-23,10,5,-3,-100,-100,-100,0,0,100,0.00,40.00,0,-999,0,0.01
2013-3-24,8,2,-2,-100,-100,-100,0,0,100,0.00,40.00,0,-999,0,0.00
2013-3-25,21,9,-3,-100,-100,-100,0,0,100,0.00,40.00,0,-999,0,0.01
2013-3-26,29,20,5,-100,-100,-100,0,0,100,0.00,40.00,0,-999,0,0.01
2013-3-27,36,27,19,-100,-100,-100,0,0,100,0.00,40.00,0,-999,0,0.01
2013-3-28,44,32,22,-100,-100,-100,0,0,100,0.00,40.00,0,-999,0,0.00
2013-3-29,40,34,25,-100,-100,-100,0,0,100,0.00,40.00,0,-999,0,0.00
2013-3-30,35,30,19,-100,-100,-100,0,0,100,0.00,40.00,0,-999,0,0.00
2013-3-31,42,31,18,-100,-100,-100,0,0,100,0.00,40.00,0,-999,0,0.00
2013-4-1,44,32,26,-100,-100,-100,0,0,100,0.00,40.00,0,-999,0,0.00
2013-4-2,32,28,24,-100,-100,-100,0,0,100,0.00,40.00,0,-999,0,0.00
2013-4-3,43,29,19,-100,-100,-100,0,0,100,0.00,40.00,0,-999,0,0.01
2013-4-4,44,33,24,-100,-100,-100,0,0,100,0.00,40.00,0,-999,0,0.01
2013-4-5,44,34,28,-100,-100,-100,0,0,100,0.00,40.00,0,-999,0,0.01
2013-4-6,35,28,23,-100,-100,-100,0,0,100,0.00,40.00,0,-999,0,0.01
2013-4-7,36,28,25,-100,-100,-100,0,0,100,0.00,40.00,0,-999,0,0.03
2013-4-8,39,27,16,-100,-100,-100,0,0,100,0.00,40.00,0,-999,0,0.01
2013-4-9,15,8,-2,-100,-100,-100,0,0,100,0.00,40.00,0,-999,0,0.01
2013-4-10,22,12,-4,-100,-100,-100,0,0,100,0.00,40.00,0,-999,0,0.01
2013-4-11,29,24,21,-100,-100,-100,0,0,100,0.00,40.00,0,-999,0,0.01
2013-4-12,31,25,20,-100,-100,-100,0,0,100,0.00,40.00,0,-999,0,0.01
2013-4-13,33,26,20,-100,-100,-100,0,0,100,0.00,40.00,0,-999,0,0.04
2013-4-14,20,14,8,-100,-100,-100,0,0,100,0.00,40.00,0,-999,0,0.04
2013-4-15,29,21,13,-100,-100,-100,0,0,100,0.00,40.00,0,-999,0,0.01
2013-4-16,29,23,16,-100,-100,-100,0,0,100,0.00,40.00,0,-999,0,0.02
2013-4-17,20,11,1,-100,-100,-100,0,0,100,0.00,40.00,0,-999,0,0.03
2013-4-18,15,11,1,-100,-100,-100,0,0,100,0.00,40.00,0,-999,0,0.01
2013-4-19,26,19,13,-100,-100,-100,0,0,100,0.00,40.00,0,-999,0,0.00
2013-4-20,31,27,23,-100,-100,-100,0,0,100,0.00,40.00,0,-999,0,0.05
2013-4-21,36,28,23,-100,-100,-100,0,0,100,0.00,40.00,0,-999,0,0.02
2013-4-22,30,22,8,-100,-100,-100,0,0,100,0.00,40.00,0,-999,0,0.02
2013-4-23,21,14,3,-100,-100,-100,0,0,100,0.00,40.00,0,-999,0,0.01
2013-4-24,31,26,18,-100,-100,-100,0,0,100,0.00,40.00,0,-999,0,0.00
2013-4-25,42,32,15,-100,-100,-100,0,0,100,0.00,40.00,0,-999,0,0.00
2013-4-26,45,35,23,-100,-100,-100,0,0,100,0.00,40.00,0,-999,0,0.00
2013-4-27,48,37,29,-100,-100,-100,0,0,100,0.00,40.00,0,-999,0,0.00
2013-4-28,50,40,32,-100,-100,-100,0,0,100,0.00,40.00,0,-999,0,0.00
2013-4-29,49,42,31,-100,-100,-100,0,0,100,0.00,40.00,0,-999,0,0.00
2013-4-30,42,34,24,-100,-100,-100,0,0,100,0.00,40.00,0,-999,0,0.01
2013-5-1,24,18,9,-100,-100,-100,0,0,100,0.00,40.00,0,-999,0,0.02
2013-5-2,29,19,5,-100,-100,-100,0,0,100,0.00,40.00,0,-999,0,0.00
2013-5-3,43,33,21,-100,-100,-100,0,0,100,0.00,40.00,0,-999,0,0.00
2013-5-4,39,32,28,-100,-100,-100,0,0,100,0.00,40.00,0,-999,0,0.00
2013-5-5,45,36,30,-100,-100,-100,0,0,100,0.00,40.00,0,-999,0,0.00
2013-5-6,43,38,31,-100,-100,-100,0,0,100,0.00,40.00,0,-999,0,0.01
2013-5-7,43,37,30,-100,-100,-100,0,0,100,0.00,40.00,0,-999,0,0.01
2013-5-8,42,35,30,-100,-100,-100,0,0,100,0.00,40.00,0,-999,0,0.00
2013-5-9,44,36,30,-100,-100,-100,0,0,100,0.00,40.00,0,-999,0,0.01
2013-5-10,44,35,27,-100,-100,-100,0,0,100,0.00,40.00,0,-999,0,0.00
2013-5-11,49,39,30,-100,-100,-100,0,0,100,0.00,40.00,0,-999,0,0.00
2013-5-12,54,45,36,-100,-100,-100,0,0,100,0.00,40.00,0,-999,0,0.00
2013-5-13,60,49,41,-100,-100,-100,0,0,100,0.00,40.00,0,-999,0,0.00
2013-5-14,60,50,42,-100,-100,-100,0,0,100,0.00,40.00,0,-999,0,0.00
2013-5-15,56,46,40,-100,-100,-100,0,0,100,0.00,40.00,0,-999,0,0.00
2013-5-16,55,44,36,-100,-100,-100,0,0,100,0.00,40.00,0,-999,0,0.01
2013-5-17,57,47,40,-100,-100,-100,0,0,100,0.00,40.00,0,-999,0,0.00
2013-5-18,44,37,33,-100,-100,-100,0,0,100,0.00,40.00,0,-999,0,0.01
2013-5-19,38,33,30,-100,-100,-100,0,0,100,0.00,40.00,0,-999,0,0.02
2013-5-20,34,31,27,-100,-100,-100,0,0,100,0.00,40.00,0,-999,0,0.04
2013-5-21,40,32,21,-100,-100,-100,0,0,100,0.00,40.00,0,-999,0,0.01
2013-5-22,52,42,32,-100,-100,-100,0,0,100,0.00,40.00,0,-999,0,0.00
2013-5-23,57,48,39,-100,-100,-100,0,0,100,0.00,40.00,0,-999,0,0.00
2013-5-24,53,45,33,-100,-100,-100,0,0,100,0.00,40.00,0,-999,0,0.00
2013-5-25,56,47,38,-100,-100,-100,0,0,100,0.00,40.00,0,-999,0,0.00
2013-5-26,58,48,38,-100,-100,-100,0,0,100,0.00,40.00,0,-999,0,0.00
2013-5-27,53,45,37,-100,-100,-100,0,0,100,0.00,40.00,0,-999,0,0.00
2013-5-28,50,41,34,-100,-100,-100,0,0,100,0.00,40.00,0,-999,0,0.00
2013-5-29,39,35,31,-100,-100,-100,0,0,100,0.00,40.00,0,-999,0,0.04
2013-5-30,39,33,29,-100,-100,-100,0,0,100,0.00,40.00,0,-999,0,0.02
2013-5-31,42,33,26,-100,-100,-100,0,0,100,0.00,40.00,0,-999,0,0.00
2013-6-1,46,37,30,-100,-100,-100,0,0,100,0.00,40.00,0,-999,0,0.01
2013-6-2,58,48,33,-100,-100,-100,0,0,100,0.00,40.00,0,-999,0,0.01
2013-6-3,55,47,39,-100,-100,-100,0,0,100,0.00,40.00,0,-999,0,0.00
2013-6-4,53,43,31,-100,-100,-100,0,0,100,0.00,40.00,0,-999,0,0.00
2013-6-5,50,42,34,-100,-100,-100,0,0,100,0.00,40.00,0,-999,0,0.00
2013-6-6,54,46,37,-100,-100,-100,0,0,100,0.00,40.00,0,-999,0,0.00
2013-6-7,57,48,39,-100,-100,-100,0,0,100,0.00,40.00,0,-999,0,0.00
2013-6-8,52,46,39,-100,-100,-100,0,0,100,0.00,40.00,0,-999,0,0.01
2013-6-9,62,52,42,-100,-100,-100,0,0,100,0.00,40.00,0,-999,0,0.00
2013-6-10,67,56,47,-100,-100,-100,0,0,100,0.00,40.00,0,-999,0,0.00
2013-6-11,60,54,47,-100,-100,-100,0,0,100,0.00,40.00,0,-999,0,0.00
2013-6-12,61,53,44,-100,-100,-100,0,0,100,0.00,40.00,0,-999,0,0.00
2013-6-13,60,54,46,-100,-100,-100,0,0,100,0.00,40.00,0,-999,0,0.01
2013-6-14,60,50,39,-100,-100,-100,0,0,100,0.00,40.00,0,-999,0,0.00
2013-6-15,59,49,36,-100,-100,-100,0,0,100,0.00,40.00,0,-999,0,0.00
2013-6-16,59,48,41,-100,-100,-100,0,0,100,0.00,40.00,0,-999,0,0.01
2013-6-17,60,50,40,-100,-100,-100,0,0,100,0.00,40.00,0,-999,0,0.00
2013-6-18,62,53,44,-100,-100,-100,0,0,100,0.00,40.00,0,-999,0,0.01
2013-6-19,62,53,43,-100,-100,-100,0,0,100,0.00,40.00,0,-999,0,0.00
2013-6-20,59,46,36,-100,-100,-100,0,0,100,0.00,40.00,0,-999,0,0.00
2013-6-22,61,54,43,-100,-100,-100,0,0,100,0.00,40.00,0,-999,0,0.01
2013-6-23,60,49,35,-100,-100,-100,0,0,100,0.00,40.00,0,-999,0,0.00
2013-6-24,62,54,43,-100,-100,-100,0,0,100,0.00,40.00,0,-999,0,0.00
2013-6-25,59,50,41,-100,-100,-100,0,0,100,0.00,40.00,0,-999,0,0.01
2013-6-26,67,55,43,-100,-100,-100,0,0,100,0.00,40.00,0,-999,0,0.00
2013-6-27,70,60,49,-100,-100,-100,0,0,100,0.00,40.00,0,-999,0,0.00
2013-6-28,69,62,53,-100,-100,-100,0,0,100,0.00,40.00,0,-999,0,0.00
2013-6-29,67,59,51,-100,-100,-100,0,0,100,0.00,40.00,0,-999,0,0.00
2013-6-30,63,55,47,-100,-100,-100,0,0,100,0.00,40.00,0,-999,0,0.01
2013-7-1,60,53,44,-100,-100,-100,0,0,100,0.00,40.00,0,-999,0,0.01
2013-7-2,60,53,46,-100,-100,-100,0,0,100,0.00,40.00,0,-999,0,0.00
2013-7-3,65,54,45,-100,-100,-100,0,0,100,0.00,40.00,0,-999,0,0.01
2013-7-4,65,53,45,-100,-100,-100,0,0,100,0.00,40.00,0,-999,0,0.02
2013-7-5,61,53,47,-100,-100,-100,0,0,100,0.00,40.00,0,-999,0,0.03
2013-7-6,63,53,44,-100,-100,-100,0,0,100,0.00,40.00,0,-999,0,0.01
2013-7-7,65,56,46,-100,-100,-100,0,0,100,0.00,40.00,0,-999,0,0.00
2013-7-8,63,54,47,-100,-100,-100,0,0,100,0.00,40.00,0,-999,0,0.01
2013-7-9,65,56,49,-100,-100,-100,0,0,100,0.00,40.00,0,-999,0,0.00
2013-7-10,70,60,49,-100,-100,-100,0,0,100,0.00,40.00,0,-999,0,0.00
2013-7-11,73,63,53,-100,-100,-100,0,0,100,0.00,40.00,0,-999,0,0.00
2013-7-12,66,55,49,-100,-100,-100,0,0,100,0.00,40.00,0,-999,0,0.04
2013-7-13,61,53,47,-100,-100,-100,0,0,100,0.00,40.00,0,-999,0,0.04
2013-7-14,61,54,45,-100,-100,-100,0,0,100,0.00,40.00,0,-999,0,0.00
2013-7-15,64,55,47,-100,-100,-100,0,0,100,0.00,40.00,0,-999,0,0.00
2013-7-16,64,57,48,-100,-100,-100,0,0,100,0.00,40.00,0,-999,0,0.00
2013-7-17,70,59,51,-100,-100,-100,0,0,100,0.00,40.00,0,-999,0,0.00
2013-7-18,63,58,51,-100,-100,-100,0,0,100,0.00,40.00,0,-999,0,0.01
2013-7-19,63,56,47,-100,-100,-100,0,0,100,0.00,40.00,0,-999,0,0.00
2013-7-20,66,56,49,-100,-100,-100,0,0,100,0.00,40.00,0,-999,0,0.01
2013-7-21,69,60,49,-100,-100,-100,0,0,100,0.00,40.00,0,-999,0,0.00
2013-7-22,70,59,49,-100,-100,-100,0,0,100,0.00,40.00,0,-999,0,0.00
2013-7-23,70,60,50,-100,-100,-100,0,0,100,0.00,40.00,0,-999,0,0.00
2013-7-24,70,57,49,-100,-100,-100,0,0,100,0.00,40.00,0,-999,0,0.00
2013-7-25,62,51,44,-100,-100,-100,0,0,100,0.00,40.00,0,-999,0,0.02
2013-7-26,63,53,41,-100,-100,-100,0,0,100,0.00,40.00,0,-999,0,0.01
2013-7-27,65,55,46,-100,-100,-100,0,0,100,0.00,40.00,0,-999,0,0.00
2013-7-28,56,50,46,-100,-100,-100,0,0,100,0.00,40.00,0,-999,0,0.01
2013-7-29,58,48,43,-100,-100,-100,0,0,100,0.00,40.00,0,-999,0,0.00
2013-7-30,58,52,43,-100,-100,-100,0,0,100,0.00,40.00,0,-999,0,0.07
2013-7-31,65,56,46,-100,-100,-100,0,0,100,0.00,40.00,0,-999,0,1.82
2013-8-1,67,53,47,-100,-100,-100,0,0,100,0.00,40.00,0,-999,0,0.02
2013-8-2,64,56,46,-100,-100,-100,0,0,100,0.00,40.00,0,-999,0,0.01
2013-8-3,66,56,49,-100,-100,-100,0,0,100,0.00,40.00,0,-999,0,0.00
2013-8-4,65,56,49,-100,-100,-100,0,0,100,0.00,40.00,0,-999,0,0.01
2013-8-5,63,53,48,-100,-100,-100,0,0,100,0.00,40.00,0,-999,0,0.01
2013-8-6,65,56,46,-100,-100,-100,0,0,100,0.00,40.00,0,-999,0,0.00
2013-8-7,62,54,45,-100,-100,-100,0,0,100,0.00,40.00,0,-999,0,0.00
2013-8-8,59,50,45,-100,-100,-100,0,0,100,0.00,40.00,0,-999,0,0.02
2013-8-9,54,48,42,-100,-100,-100,0,0,100,0.00,40.00,0,-999,0,0.01
2013-8-10,64,52,42,-100,-100,-100,0,0,100,0.00,40.00,0,-999,0,0.00
2013-8-11,60,50,43,-100,-100,-100,0,0,100,0.00,40.00,0,-999,0,0.01
2013-8-12,60,50,41,-100,-100,-100,0,0,100,0.00,40.00,0,-999,0,0.02
2013-8-13,53,46,42,-100,-100,-100,0,0,100,0.00,40.00,0,-999,0,0.03
2013-8-14,61,49,40,-100,-100,-100,0,0,100,0.00,40.00,0,-999,0,0.00
2013-8-15,64,55,46,-100,-100,-100,0,0,100,0.00,40.00,0,-999,0,0.00
2013-8-16,70,60,49,-100,-100,-100,0,0,100,0.00,40.00,0,-999,0,0.00
2013-8-17,69,62,52,-100,-100,-100,0,0,100,0.00,40.00,0,-999,0,0.00
2013-8-18,68,60,52,-100,-100,-100,0,0,100,0.00,40.00,0,-999,0,0.01
2013-8-19,70,59,50,-100,-100,-100,0,0,100,0.00,40.00,0,-999,0,0.00
2013-8-20,67,59,52,-100,-100,-100,0,0,100,0.00,40.00,0,-999,0,0.01
2013-8-21,63,55,48,-100,-100,-100,0,0,100,0.00,40.00,0,-999,0,0.01
2013-8-22,62,55,50,-100,-100,-100,0,0,100,0.00,40.00,0,-999,0,0.01
2013-8-23,65,56,48,-100,-100,-100,0,0,100,0.00,40.00,0,-999,0,0.00
2013-8-24,62,54,46,-100,-100,-100,0,0,100,0.00,40.00,0,-999,0,0.01
2013-8-25,59,52,45,-100,-100,-100,0,0,100,0.00,40.00,0,-999,0,0.01
2013-8-26,60,53,49,-100,-100,-100,0,0,100,0.00,40.00,0,-999,0,0.01
2013-8-27,62,54,48,-100,-100,-100,0,0,100,0.00,40.00,0,-999,0,0.00
2013-8-28,65,62,54,-100,-100,-100,0,0,100,0.00,40.00,0,-999,0,0.01
2013-8-29,69,58,49,-100,-100,-100,0,0,100,0.00,40.00,0,-999,0,0.00
2013-8-30,68,60,51,-100,-100,-100,0,0,100,0.00,40.00,0,-999,0,0.01
2013-8-31,69,57,52,-100,-100,-100,0,0,100,0.00,40.00,0,-999,0,0.01
2013-9-1,65,58,51,-100,-100,-100,0,0,100,0.00,40.00,0,-999,0,0.01
2013-9-2,67,58,52,-100,-100,-100,0,0,100,0.00,40.00,0,-999,0,0.00
2013-9-3,65,56,49,-100,-100,-100,0,0,100,0.00,40.00,0,-999,0,0.00
2013-9-4,69,60,52,-100,-100,-100,0,0,100,0.00,40.00,0,-999,0,0.01
2013-9-5,69,59,52,-100,-100,-100,0,0,100,0.00,40.00,0,-999,0,0.01
2013-9-6,66,57,52,-100,-100,-100,0,0,100,0.00,40.00,0,-999,0,0.01
2013-9-7,65,54,45,-100,-100,-100,0,0,100,0.00,40.00,0,-999,0,0.05
2013-9-8,64,54,48,-100,-100,-100,0,0,100,0.00,40.00,0,-999,0,0.02
2013-9-9,50,46,40,-100,-100,-100,0,0,100,0.00,40.00,0,-999,0,0.02
2013-9-10,49,46,44,-100,-100,-100,0,0,100,0.00,40.00,0,-999,0,0.01
2013-9-11,51,49,47,-100,-100,-100,0,0,100,0.00,40.00,0,-999,0,0.01
2013-9-12,52,48,47,-100,-100,-100,0,0,100,0.00,40.00,0,-999,0,0.04
2013-9-13,50,47,45,-100,-100,-100,0,0,100,0.00,40.00,0,-999,0,0.02
2013-9-14,53,47,42,-100,-100,-100,0,0,100,0.00,40.00,0,-999,0,0.01
2013-9-15,48,45,43,-100,-100,-100,0,0,100,0.00,40.00,0,-999,0,0.01
2013-9-16,57,47,42,-100,-100,-100,0,0,100,0.00,40.00,0,-999,0,0.01
2013-9-17,58,49,44,-100,-100,-100,0,0,100,0.00,40.00,0,-999,0,0.00
2013-9-18,47,42,36,-100,-100,-100,0,0,100,0.00,40.00,0,-999,0,0.00
2013-9-19,46,38,31,-100,-100,-100,0,0,100,0.00,40.00,0,-999,0,0.00
2013-9-20,58,46,32,-100,-100,-100,0,0,100,0.00,40.00,0,-999,0,0.00
2013-9-21,60,49,41,-100,-100,-100,0,0,100,0.00,40.00,0,-999,0,0.00
2013-9-22,54,45,39,-100,-100,-100,0,0,100,0.00,40.00,0,-999,0,0.01
2013-9-23,39,35,32,-100,-100,-100,0,0,100,0.00,40.00,0,-999,0,0.01
2013-9-24,55,43,32,-100,-100,-100,0,0,100,0.00,40.00,0,-999,0,0.00
2013-9-25,58,46,34,-100,-100,-100,0,0,100,0.00,40.00,0,-999,0,0.00
2013-9-26,53,45,36,-100,-100,-100,0,0,100,0.00,40.00,0,-999,0,0.00
2013-9-27,45,34,26,-100,-100,-100,0,0,100,0.00,40.00,0,-999,0,0.03
2013-9-28,38,29,22,-100,-100,-100,0,0,100,0.00,40.00,0,-999,0,0.01
2013-9-29,48,38,29,-100,-100,-100,0,0,100,0.00,40.00,0,-999,0,0.00
2013-9-30,55,47,37,-100,-100,-100,0,0,100,0.00,40.00,0,-999,0,0.00
2013-10-1,52,45,41,-100,-100,-100,0,0,100,0.00,40.00,0,-999,0,0.00
2013-10-2,54,46,38,-100,-100,-100,0,0,100,0.00,40.00,0,-999,0,0.00
2013-10-3,47,39,28,-100,-100,-100,0,0,100,0.00,40.00,0,-999,0,0.01
2013-10-4,27,20,14,-100,-100,-100,0,0,100,0.00,40.00,0,-999,0,0.04
2013-10-5,32,24,16,-100,-100,-100,0,0,100,0.00,40.00,0,-999,0,0.01
2013-10-6,45,34,23,-100,-100,-100,0,0,100,0.00,40.00,0,-999,0,0.00
2013-10-7,53,42,32,-100,-100,-100,0,0,100,0.00,40.00,0,-999,0,0.01
2013-10-8,50,42,36,-100,-100,-100,0,0,100,0.00,40.00,0,-999,0,0.01
2013-10-9,45,40,34,-100,-100,-100,0,0,100,0.00,40.00,0,-999,0,0.01
2013-10-10,44,40,35,-100,-100,-100,0,0,100,0.00,40.00,0,-999,0,0.00
2013-10-11,30,29,28,-100,-100,-100,0,0,100,0.00,40.00,0,-999,0,0.07
2013-10-12,37,30,23,-100,-100,-100,0,0,100,0.00,40.00,0,-999,0,0.01
2013-10-13,45,37,29,-100,-100,-100,0,0,100,0.00,40.00,0,-999,0,0.00
2013-10-21,32,30,28,-100,-100,-100,0,0,100,0.00,40.00,0,-999,0,0.00
2013-10-22,43,33,29,-100,-100,-100,0,0,100,0.00,40.00,0,-999,0,0.00
2013-10-23,45,34,29,-100,-100,-100,0,0,100,0.00,40.00,0,-999,0,0.00
2013-10-24,47,40,35,-100,-100,-100,0,0,100,0.00,40.00,0,-999,0,0.00
2013-10-25,38,33,32,-100,-100,-100,0,0,100,0.00,40.00,0,-999,0,0.00
2013-10-26,46,39,30,-100,-100,-100,0,0,100,0.00,40.00,0,-999,0,0.03
2013-10-27,43,38,32,-100,-100,-100,0,0,100,0.00,40.00,0,-999,0,0.00
2013-10-28,43,39,36,-100,-100,-100,0,0,100,0.00,40.00,0,-999,0,0.00
2013-10-29,38,30,26,-100,-100,-100,0,0,100,0.00,40.00,0,-999,0,0.00
2013-10-30,26,25,23,-100,-100,-100,0,0,100,0.00,40.00,0,-999,0,0.00
2013-10-31,25,24,19,-100,-100,-100,0,0,100,0.00,40.00,0,-999,0,0.00
2013-11-1,25,23,21,-100,-100,-100,0,0,100,0.00,40.00,0,-999,0,0.01
2013-11-2,39,33,20,-100,-100,-100,0,0,100,0.00,40.00,0,-999,0,0.00
2013-11-3,36,30,15,-100,-100,-100,0,0,100,0.00,40.00,0,-999,0,0.01
2013-11-12,45,35,29,-100,-100,-100,0,0,100,0.00,40.00,0,-999,0,0.00
2013-11-13,42,37,27,-100,-100,-100,0,0,100,0.00,40.00,0,-999,0,0.00
2013-11-14,30,26,25,-100,-100,-100,0,0,100,0.00,40.00,0,-999,0,0.01
2013-11-15,27,25,23,-100,-100,-100,0,0,100,0.00,40.00,0,-999,0,0.02
2013-11-16,23,20,19,-100,-100,-100,0,0,100,0.00,40.00,0,-999,0,0.02
2013-11-17,22,22,22,-100,-100,-100,0,0,100,0.00,40.00,0,-999,0,0.00
2013-11-18,32,25,18,-100,-100,-100,0,0,100,0.00,40.00,0,-999,0,0.00
2013-11-19,32,28,24,-100,-100,-100,0,0,100,0.00,40.00,0,-999,0,0.02
2013-11-20,29,26,25,-100,-100,-100,0,0,100,0.00,40.00,0,-999,0,0.01
2013-11-21,26,15,9,-100,-100,-100,0,0,100,0.00,40.00,0,-999,0,0.00
2013-11-22,28,25,23,-100,-100,-100,0,0,100,0.00,40.00,0,-999,0,0.00
2013-11-23,32,29,22,-100,-100,-100,0,0,100,0.00,40.00,0,-999,0,0.00
2013-11-24,34,25,18,-100,-100,-100,0,0,100,0.00,40.00,0,-999,0,0.00
2013-11-25,26,23,18,-100,-100,-100,0,0,100,0.00,40.00,0,-999,0,0.00
2013-11-26,30,22,14,-100,-100,-100,0,0,100,0.00,40.00,0,-999,0,0.00
2013-11-27,40,29,21,-100,-100,-100,0,0,100,0.00,40.00,0,-999,0,0.01
2013-11-28,41,30,25,-100,-100,-100,0,0,100,0.00,40.00,0,-999,0,0.00
2013-11-29,34,28,21,-100,-100,-100,0,0,100,0.00,40.00,0,-999,0,0.00
2013-11-30,35,24,19,-100,-100,-100,0,0,100,0.00,40.00,0,-999,0,0.00
2013-12-1,25,24,23,-100,-100,-100,0,0,100,0.00,40.00,0,-999,0,0.01
2013-12-2,26,26,25,-100,-100,-100,0,0,100,0.00,40.00,0,-999,0,0.02
2013-12-3,21,16,10,-100,-100,-100,0,0,100,0.00,40.00,0,-999,0,0.03
2013-12-4,-1,-7,-15,-100,-100,-100,0,0,100,0.00,40.00,0,-999,0,0.01
2013-12-5,1,-9,-17,-100,-100,-100,0,0,100,0.00,40.00,0,-999,0,0.00
2013-12-6,-2,-6,-16,-100,-100,-100,0,0,100,0.00,40.00,0,-999,0,0.02
2013-12-7,12,6,-2,-100,-100,-100,0,0,100,0.00,40.00,0,-999,0,0.02
2013-12-8,7,-1,-5,-100,-100,-100,0,0,100,0.00,40.00,0,-999,0,0.00
2013-12-9,2,-4,-12,-100,-100,-100,0,0,100,0.00,40.00,0,-999,0,0.01
2013-12-10,10,7,3,-100,-100,-100,0,0,100,0.00,40.00,0,-999,0,0.02
2013-12-11,19,11,4,-100,-100,-100,0,0,100,0.00,40.00,0,-999,0,0.02
2013-12-12,26,16,11,-100,-100,-100,0,0,100,0.00,40.00,0,-999,0,0.00
2013-12-13,23,18,14,-100,-100,-100,0,0,100,0.00,40.00,0,-999,0,0.00
2013-12-14,16,14,11,-100,-100,-100,0,0,100,0.00,40.00,0,-999,0,0.00
2013-12-15,28,24,18,-100,-100,-100,0,0,100,0.00,40.00,0,-999,0,0.00
2013-12-16,32,24,19,-100,-100,-100,0,0,100,0.00,40.00,0,-999,0,0.00
2013-12-17,35,26,20,-100,-100,-100,0,0,100,0.00,40.00,0,-999,0,0.00
2013-12-18,37,30,25,-100,-100,-100,0,0,100,0.00,40.00,0,-999,0,0.00
2013-12-19,31,27,23,-100,-100,-100,0,0,100,0.00,40.00,0,-999,0,0.01
2013-12-20,22,15,5,-100,-100,-100,0,0,100,0.00,40.00,0,-999,0,0.01
2013-12-21,15,11,6,-100,-100,-100,0,0,100,0.00,40.00,0,-999,0,0.01
2013-12-22,15,12,7,-100,-100,-100,0,0,100,0.00,40.00,0,-999,0,0.02
2013-12-23,23,20,14,-100,-100,-100,0,0,100,0.00,40.00,0,-999,0,0.03
2013-12-24,25,18,10,-100,-100,-100,0,0,100,0.00,40.00,0,-999,0,0.03
2013-12-25,17,7,3,-100,-100,-100,0,0,100,0.00,40.00,0,-999,0,0.00
2013-12-26,28,17,13,-100,-100,-100,0,0,100,0.00,40.00,0,-999,0,0.01
2013-12-27,20,19,18,-100,-100,-100,0,0,100,0.00,40.00,0,-999,0,0.00
2013-12-28,25,23,21,-100,-100,-100,0,0,100,0.00,40.00,0,-999,0,0.00
2013-12-29,14,8,4,-100,-100,-100,0,0,100,0.00,40.00,0,-999,0,0.00
2013-12-30,19,16,15,-100,-100,-100,0,0,100,0.00,40.00,0,-999,0,0.00
2013-12-31,24,23,22,-100,-100,-100,0,0,100,0.00,40.00,0,-999,0,0.03
2014-1-1,23,18,13,-100,-100,-100,0,0,100,0.00,40.00,0,-999,0,0.05
2014-1-2,23,15,10,-100,-100,-100,0,0,100,0.00,40.00,0,-999,0,0.01